GW4050 Weather Reports


time (UTC)temp
F
wind
direction
speed
knots
gust
knots
rain 1hr
in
rain 24hr
in
rain mn
in
humidity
%
barometer
mb
20260508122320 64 317 0.0 1.7 0.00 0.00 0.00 55 1016.6
20260508121318 62 317 0.0 2.6 0.00 0.00 0.00 57 1016.7
20260508120338 61 0.0 0.0 0.00 0.00 0.00 56 1016.8
20260508115338 60 0.0 0.0 0.00 0.00 0.00 60 1016.9
20260508114317 59 152 0.9 2.6 0.00 0.00 0.00 62 1016.9
20260508113317 59 12 0.0 1.7 0.00 0.00 0.00 65 1016.9
20260508112317 58 0.0 0.0 0.00 0.00 0.00 65 1016.9
20260508111441 57 0.0 0.0 0.00 0.00 0.00 66 1016.9
20260508110319 56 133 0.0 0.9 0.00 0.00 0.00 67 1016.8
20260508105317 56 0.0 0.0 0.00 0.00 0.00 68 1016.9
20260508104317 56 0.0 0.0 0.00 0.00 0.00 70 1016.9
20260508103318 56 130 0.9 1.7 0.00 0.00 0.00 68 1017.0
20260508102338 56 120 1.7 2.6 0.00 0.00 0.00 68 1017.0
20260508101318 55 176 0.0 0.9 0.00 0.00 0.00 70 1017.0
20260508100319 55 123 2.6 3.5 0.00 0.00 0.00 71 1017.0
20260508095320 55 109 0.9 1.7 0.00 0.00 0.00 70 1016.9
20260508094318 54 120 0.9 1.7 0.00 0.00 0.00 72 1016.9
20260508093319 54 138 0.9 2.6 0.00 0.00 0.00 71 1017.0
20260508092359 54 106 2.6 3.5 0.00 0.00 0.00 70 1017.0
20260508091319 54 111 1.7 2.6 0.00 0.00 0.00 69 1016.9
20260508090319 54 0.0 0.0 0.00 0.00 0.00 72 1016.9
20260508085319 54 0.0 0.0 0.00 0.00 0.00 72 1016.9
20260508084319 53 0.0 0.0 0.00 0.00 0.00 72 1016.8
20260508083319 53 123 1.7 1.7 0.00 0.00 0.00 73 1016.7
20260508082320 52 112 0.0 0.9 0.00 0.00 0.00 75 1016.6
20260508081320 51 0.0 0.0 0.00 0.00 0.00 78 1016.6
20260508080340 50 150 0.9 1.7 0.00 0.00 0.00 79 1016.6
20260508075340 50 0.0 0.0 0.00 0.00 0.00 80 1016.4
20260508074323 49 116 0.0 0.9 0.00 0.00 0.00 81 1016.4
20260508073321 49 0.0 0.0 0.00 0.00 0.00 82 1016.4
20260508072320 48 130 0.0 1.7 0.00 0.00 0.00 82 1016.4
20260508071317 48 131 1.7 3.5 0.00 0.00 0.00 82 1016.3
20260508070317 48 0.0 0.0 0.00 0.00 0.00 83 1016.3
20260508065337 48 133 0.9 2.6 0.00 0.00 0.00 85 1016.2
20260508064320 47 0.0 0.0 0.00 0.00 0.00 86 1016.2
20260508063317 47 0.0 0.0 0.00 0.00 0.00 86 1016.0
20260508062317 47 0.0 0.0 0.00 0.00 0.00 85 1015.9
20260508061317 47 0.0 0.0 0.00 0.00 0.00 84 1015.9
20260508060318 46 0.0 0.0 0.00 0.00 0.00 85 1015.8
20260508055318 46 172 0.9 2.6 0.00 0.00 0.00 86 1015.7
20260508054358 46 0.0 0.0 0.00 0.00 0.00 86 1015.7
20260508053338 45 0.0 0.0 0.00 0.00 0.00 86 1015.6
20260508052318 45 138 0.0 1.7 0.00 0.00 0.00 86 1015.5
20260508051318 45 0.0 0.0 0.00 0.00 0.00 86 1015.4
20260508050319 44 103 0.0 1.7 0.00 0.00 0.00 86 1015.3
20260508045319 44 112 0.0 1.7 0.00 0.00 0.00 86 1015.3
20260508044336 45 94 0.0 2.6 0.00 0.00 0.00 85 1015.2
20260508043316 45 0.0 0.0 0.00 0.00 0.00 84 1015.2
20260508042319 45 0.0 0.0 0.00 0.00 0.00 85 1015.3
20260508041319 45 157 0.9 3.5 0.00 0.00 0.00 85 1015.3
20260508040319 45 142 0.9 1.7 0.00 0.00 0.00 85 1015.3
20260508035317 44 0.0 0.0 0.00 0.00 0.00 85 1015.3
20260508034317 44 0.0 0.0 0.00 0.00 0.00 85 1015.2
20260508033318 45 132 0.0 0.0 0.00 0.00 0.00 85 1015.2
20260508032317 45 0.0 0.0 0.00 0.00 0.00 85 1015.3
20260508031318 45 134 0.9 2.6 0.00 0.00 0.00 84 1015.3
20260508030318 45 119 1.7 5.2 0.00 0.00 0.00 84 1015.3
20260508025318 45 181 0.9 3.5 0.00 0.00 0.00 84 1015.3
20260508024318 45 133 0.0 1.7 0.00 0.00 0.00 84 1015.3
20260508023318 45 110 1.7 3.5 0.00 0.00 0.00 84 1015.3
20260508022318 45 173 0.9 3.5 0.00 0.00 0.00 84 1015.2
20260508021319 46 143 0.9 2.6 0.00 0.00 0.00 83 1015.2
20260508020318 46 120 3.5 4.3 0.00 0.00 0.00 83 1015.2
20260508015319 46 121 2.6 4.3 0.00 0.00 0.00 83 1015.3
20260508014319 46 116 0.9 2.6 0.00 0.00 0.00 83 1015.3
20260508013317 46 122 0.9 3.5 0.00 0.00 0.00 82 1015.3
20260508012316 46 133 0.0 1.7 0.00 0.00 0.00 82 1015.3
20260508011317 47 127 0.0 0.9 0.00 0.00 0.00 81 1015.3
20260508010316 47 138 0.9 2.6 0.00 0.00 0.00 81 1015.2
20260508005320 47 142 0.0 0.9 0.00 0.00 0.00 81 1015.2
20260508004400 47 112 0.0 0.9 0.00 0.00 0.00 81 1015.2
20260508003317 48 134 0.0 2.6 0.00 0.00 0.00 81 1015.1
20260508002318 48 128 0.9 3.5 0.00 0.00 0.00 80 1015.2
20260508001317 48 164 0.0 0.0 0.00 0.00 0.00 80 1015.2
20260508000320 47 130 2.6 4.3 0.00 0.00 0.00 81 1015.3
20260507235318 47 131 1.7 4.3 0.00 0.00 0.00 82 1015.3
20260507234338 48 129 0.0 1.7 0.00 0.00 0.00 82 1015.4
20260507233318 48 0.0 0.0 0.00 0.00 0.00 82 1015.4
20260507232318 48 0.0 0.0 0.00 0.00 0.00 81 1015.4
20260507231319 49 0.0 0.0 0.00 0.00 0.00 80 1015.4
20260507230339 49 0.0 0.0 0.00 0.00 0.00 79 1015.4
20260507225316 49 150 0.0 1.7 0.00 0.00 0.00 79 1015.4
20260507224316 50 0.0 0.0 0.00 0.00 0.00 78 1015.4
20260507223319 50 0.0 0.0 0.00 0.00 0.00 78 1015.3
20260507222320 50 150 0.0 2.6 0.00 0.00 0.00 78 1015.3
20260507221340 50 0.0 0.0 0.00 0.00 0.00 78 1015.3
20260507220317 50 166 0.9 2.6 0.00 0.00 0.00 78 1015.3
20260507215337 50 0.0 0.0 0.00 0.00 0.00 78 1015.3
20260507214318 50 0.0 0.0 0.00 0.00 0.00 78 1015.3
20260507213317 50 174 0.9 2.6 0.00 0.00 0.00 79 1015.2
20260507212317 50 189 0.9 2.6 0.00 0.00 0.00 79 1015.3
20260507211318 50 0.0 0.0 0.00 0.00 0.00 79 1015.2
20260507210318 50 0.0 0.0 0.00 0.00 0.00 78 1015.2
20260507205318 50 0.0 0.0 0.00 0.00 0.00 78 1015.1
20260507204318 51 0.0 0.0 0.00 0.00 0.00 77 1015.0
20260507203318 51 0.0 0.0 0.00 0.00 0.00 76 1014.9
20260507202318 51 0.0 0.0 0.00 0.00 0.00 75 1014.8
20260507201319 51 0.0 0.0 0.00 0.00 0.00 74 1014.8
20260507200318 51 75 0.0 1.7 0.00 0.00 0.00 75 1014.6
20260507195319 52 0.0 0.0 0.00 0.00 0.00 73 1014.6
20260507194320 52 0.0 0.0 0.00 0.00 0.00 71 1014.5
20260507193316 52 0.0 0.0 0.00 0.00 0.00 71 1014.4
20260507192316 53 138 0.0 1.7 0.00 0.00 0.00 70 1014.3
20260507191319 53 200 1.7 3.5 0.00 0.00 0.00 68 1014.4
20260507190320 54 171 1.7 3.5 0.00 0.00 0.00 66 1014.3
20260507185317 54 213 1.7 3.5 0.00 0.00 0.00 66 1014.2
20260507184317 54 215 1.7 3.5 0.00 0.00 0.00 68 1014.2
20260507183317 55 216 1.7 3.5 0.00 0.00 0.00 67 1014.1
20260507182337 55 210 1.7 4.3 0.00 0.00 0.00 74 1014.1
20260507181317 55 0.0 0.0 0.00 0.00 0.00 78 1014.1
20260507180318 54 0.0 0.0 0.00 0.00 0.00 79 1014.1
20260507175318 54 118 0.9 2.6 0.00 0.00 0.00 78 1014.0
20260507174318 54 139 0.9 3.5 0.00 0.00 0.00 77 1014.1
20260507173318 55 94 0.9 2.6 0.00 0.00 0.00 76 1014.1
20260507172319 55 125 3.5 5.2 0.00 0.00 0.00 75 1014.1
20260507171316 56 197 1.7 3.5 0.00 0.00 0.00 71 1014.1
20260507170316 56 204 1.7 3.5 0.00 0.00 0.00 71 1014.0
20260507165319 56 220 3.5 5.2 0.00 0.00 0.00 69 1014.1
20260507164320 56 229 0.9 2.6 0.00 0.00 0.00 69 1014.1
20260507163339 55 198 0.0 2.6 0.00 0.00 0.00 72 1014.0
20260507162317 55 221 0.9 3.5 0.00 0.00 0.00 76 1014.1
20260507161317 54 206 0.0 1.7 0.00 0.00 0.00 78 1014.1
20260507160317 53 184 0.0 1.7 0.00 0.00 0.00 78 1014.1
20260507155317 54 314 0.0 1.7 0.00 0.00 0.00 78 1014.0
20260507154320 53 0.0 0.0 0.00 0.00 0.00 78 1014.1
20260507153317 54 0.0 0.0 0.00 0.00 0.00 77 1014.1
20260507152318 54 190 0.0 0.9 0.00 0.00 0.00 75 1014.1
20260507151337 55 285 0.0 1.7 0.00 0.00 0.00 71 1014.1
20260507150318 56 222 0.0 2.6 0.00 0.00 0.00 68 1014.1
20260507145339 56 154 0.9 5.2 0.00 0.00 0.00 67 1014.0
20260507144318 57 110 1.7 3.5 0.00 0.00 0.00 65 1014.0
20260507143318 57 134 0.0 1.7 0.00 0.00 0.00 63 1014.0
20260507142318 57 172 1.7 3.5 0.00 0.00 0.00 63 1014.2
20260507141319 57 168 1.7 4.3 0.00 0.00 0.00 64 1014.3
20260507140319 56 175 1.7 3.5 0.00 0.00 0.00 65 1014.4
20260507135319 56 153 0.9 2.6 0.00 0.00 0.00 64 1014.4
20260507134336 56 130 0.0 0.9 0.00 0.00 0.00 64 1014.4
20260507133316 56 177 0.0 1.7 0.00 0.00 0.00 64 1014.4
20260507132320 56 96 0.9 2.6 0.00 0.00 0.00 64 1014.4
20260507131319 57 117 2.6 5.2 0.00 0.00 0.00 64 1014.5
20260507130317 57 117 2.6 4.3 0.00 0.00 0.00 64 1014.5
20260507125317 57 115 2.6 3.5 0.00 0.00 0.00 62 1014.5
20260507124318 58 117 3.5 6.1 0.00 0.00 0.00 62 1014.4
20260507123357 58 159 1.7 4.3 0.00 0.00 0.00 60 1014.5